Regional Weather Roundup
Issued by NWS

Home | Current Version | Previous Version | Graphics & Text | Print | Product List | Glossary Off
Versions: 1 2 3 4 5 6 7 8 9 10 11 12 13 14 15 16 17 18 19 20 21 22 23 24 25 26 27 28 29 30 31 32 33 34 35 36 37 38 39 40 41 42 43 44 45 46 47 48 49 50

000
ASUS43 KTOP 270508
RWRKS

WEATHER ROUNDUP FOR KANSAS
NATIONAL WEATHER SERVICE GOODLAND KS
1200 AM CDT MON APR 27 2015

NOTE:  "FAIR" INDICATES FEW OR NO CLOUDS BELOW 12,000 FEET WITH NO
SIGNIFICANT WEATHER AND/OR OBSTRUCTIONS TO VISIBILITY.

KSZ001>006-013>018-027>032-041>047-270600-
NORTHWEST KANSAS

CITY           SKY/WX    TMP DP  RH WIND       PRES   REMARKS
GOODLAND       CLOUDY    44  43  96 E8        30.07S
HAYS           CLOUDY    48  39  71 N6        30.05R
HILL CITY      CLOUDY    48  43  82 NW5       30.07F
RUSSELL        CLOUDY    46  44  93 N6        30.04R
$$

KSZ061>065-074>080-084>089-270600-
SOUTHWEST KANSAS

CITY           SKY/WX    TMP DP  RH WIND       PRES   REMARKS
DODGE CITY     CLOUDY    47  43  86 NE14      30.00R
ELKHART          N/A     46  42  86 NE18        N/A
GARDEN CITY    CLOUDY    44  43  96 NE17      30.00R FOG
GREAT BEND     CLOUDY    48  43  81 N8        30.03S
LIBERAL        CLOUDY    48  45  87 NE21      29.97S
$$

KSZ066>073-081>083-090>101-270600-
SOUTHEAST KANSAS

CITY           SKY/WX    TMP DP  RH WIND       PRES   REMARKS
CHANUTE        CLOUDY    52  43  71 NE10      29.95S
COFFEYVILLE    CLOUDY    51  46  83 NE6       29.92S
HUTCHINSON     CLOUDY    50  44  80 N7        29.98F
MEDICINE LODGE   N/A     51  46  83 N9        29.95F
NEWTON         CLOUDY    48  43  81 NE9       29.98F
PARSONS        CLOUDY    52  47  83 NE5       29.95S
WICHITA INTL   CLOUDY    53  45  74 NE9       29.95S
WICHITA JABRA  CLOUDY    51  45  79 NE9       29.94F
WICHITA MCCONL CLOUDY    53  45  76 NE9       29.93F
WINFIELD       CLOUDY    54  45  71 NE9       29.92F
$$

KSZ007>012-019>026-033>040-048>060-102>105-270600-
NORTHEAST KANSAS

CITY           SKY/WX    TMP DP  RH WIND       PRES   REMARKS
CONCORDIA      MOCLDY    47  40  76 NE5       30.03S
EMPORIA        MOCLDY    50  40  68 NE7       30.00R
LAWRENCE       PTCLDY    51  38  60 NE10      30.02R
MANHATTAN      MOCLDY    46  41  82 NE5       30.02R
MARYSVILLE     MOCLDY    46  36  66 E9        30.05S
OLATHE IND     PTCLDY    52  36  54 E8        30.02R
OLATHE EXE     PTCLDY    51  36  56 E7        30.01R
SALINA         CLOUDY    49  42  77 N5        30.03R
TOPEKA BILLARD MOCLDY    50  39  66 E3        30.02R
TOPEKA FORBES  PTCLDY    52  38  58 NE6       30.02R
$$



USA.gov is the U.S. government's official web portal to all federal, state and local government web resources and services.